Location: Dattensoll
(49.9928°N, 9.8954°E)
Time: 18:54:35
(UTC+00:00)

Cosmos 1538 Rocket - Pass Details

Date: 19 May 2025
Orbit: 749 x 788 km, 74.0° (Epoch: 20 June)

Event Time Altitude Azimuth Distance (km) Brightness Sun altitude
Exits shadow 22:50:38 37° 202° (SSW) 1,161 4.5 -19.8°
Maximum altitude 22:52:45 89° 114° (ESE) 758 3.9 -19.8°
Drops below altitude 10° 22:57:55 10° 24° (NNE) 2,280 7.3 -19.9°
Sets 23:00:17 0° 25° (NNE) 3,208 8.3 -19.9°
